Location: Ripley
(48.3812°N, 115.4473°W)
Time: 02:30:40
(UTC+00:00)

RS-15 - Pass Details

Date: 29 June 2022
Orbit: 1881 x 2163 km, 64.8° (Epoch: 10 August)

Event Time Altitude Azimuth Distance (km) Brightness Sun altitude
Rises 05:00:34 0° 306° (NW) 5,674 12.2 -9.5°
Reaches altitude 10° 05:04:23 10° 313° (NW) 4,684 11.6 -9.9°
Maximum altitude 05:16:06 44° 24° (NNE) 2,767 9.1 -11.0°
Drops below altitude 10° 05:27:36 10° 94° (E) 4,616 9.6 -12.0°
Sets 05:31:18 0° 101° (ESE) 5,586 10.0 -12.4°
